CAPE
115 260 498 679 833 844 799 717 513 343 396 329 406 334 191 52 0 0 3 7 8 9 9 7 6 5 10 8 10 15 2 1 5 6 4 4 4 8 8 7 4 3 10
47 339 406 496 773 837 760 525 368 272 277 340 433 483 305 32 11 0 1 6 5 8 5 3 3 5 7 9 7 1 6 0 0 0 2 6 9 11 10 9 9 1 8
214 281 210 348 654 638 552 365 327 308 307 470 326 195 152 44 21 10 7 3 8 4 3 1 0 2 2 3 8 4 1 0 0 0 0 0 3 3 4 4 7 8 2
159 128 91 267 515 486 402 256 161 24 260 444 429 137 53 45 5 11 12 2 7 6 4 0 0 0 0 0 0 0 0 0 0 0 0 0 3 8 6 6 6 6 4
80 50 20 185 376 370 266 164 28 26 194 296 214 67 43 23 8 10 2 10 7 8 3 0 0 0 0 0 0 0 0 0 0 0 0 1 1 7 6 7 2 2 2
40 5 22 133 179 105 26 23 9 0 171 252 236 72 32 3 1 6 4 9 10 5 0 0 0 0 0 0 0 0 0 0 0 0 0 6 23 40 42 44 42 36 30
6 1 26 47 56 10 0 0 8 22 94 104 33 16 26 13 5 7 6 6 3 1 0 0 0 0 0 0 0 0 0 0 0 0 0 0 17 43 32 50 51 44 19
0 5 47 32 13 0 0 0 0 0 0 1 4 13 7 8 5 4 3 2 1 0 0 0 0 0 0 0 0 0 0 0 0 0 0 0 14 29 53 40 13 5 4
0 0 32 31 4 0 0 0 0 0 0 0 0 0 0 0 2 1 0 0 1 0 0 0 0 0 0 0 0 0 0 0 0 0 0 0 16 40 27 4 5 3 1
0 0 0 9 0 0 0 0 0 0 0 0 0 0 0 0 0 0 0 0 0 0 0 0 0 0 0 0 0 0 0 0 0 0 0 0 43 12 6 5 4 3 4
0 0 0 0 0 0 0 0 0 0 0 0 0 0 0 0 0 0 0 0 0 0 0 0 0 0 0 0 0 0 0 0 0 0 0 15 8 1 5 3 2 6 11
1 0 0 0 0 0 0 0 0 0 0 0 0 0 0 0 0 0 0 0 0 0 0 0 0 0 0 0 0 0 0 0 0 0 0 0 0 0 1 3 8 12 5
5 0 0 0 0 0 0 0 0 0 0 0 0 0 0 0 0 0 0 0 0 0 0 0 0 0 0 0 0 0 0 0 0 0 0 0 0 0 2 7 4 2 2
9 3 0 0 0 0 0 0 0 0 0 0 0 0 0 0 0 0 0 0 0 0 0 0 0 0 0 0 0 0 0 0 0 0 0 0 0 0 4 15 4 3 3
3 8 4 0 0 0 0 0 0 0 0 0 0 0 0 0 0 0 0 0 0 0 0 0 0 0 0 0 0 0 0 0 0 0 0 0 0 0 7 2 2 2 2
1 7 17 0 0 0 0 0 0 0 0 0 0 0 0 0 0 0 0 0 0 0 0 0 0 0 0 0 1 8 2 0 0 0 0 0 0 1 0 0 1 1 2
0 2 7 9 0 0 0 0 0 0 0 0 0 0 0 0 0 0 0 0 0 0 0 0 0 0 0 4 1 7 2 0 0 0 0 0 0 0 0 0 0 0 1
2 0 1 10 2 0 0 0 0 0 0 0 0 0 0 0 0 0 0 0 0 0 0 0 0 0 0 0 0 1 0 0 0 0 0 0 0 0 0 0 0 0 1
0 0 0 0 4 0 0 0 0 0 0 0 0 0 0 0 0 0 0 0 0 0 0 0 0 0 0 0 0 0 0 0 0 0 0 0 0 0 0 0 0 0 0
0 0 0 0 0 0 0 0 0 0 0 0 0 0 0 0 0 0 0 0 0 0 0 0 0 0 0 0 1 0 0 0 0 0 0 0 0 0 0 0 0 0 0
0 0 0 0 0 0 0 0 0 0 0 0 0 0 0 0 0 0 0 0 0 0 0 0 0 0 0 0 2 0 0 0 0 0 0 0 0 0 0 0 0 0 0
0 0 0 0 0 0 0 0 0 0 0 0 0 0 0 0 0 0 0 0 0 0 0 0 0 0 0 0 3 3 2 0 0 0 0 0 0 0 0 0 0 0 0
0 0 0 0 0 0 0 0 0 0 0 0 0 0 0 0 0 0 0 0 0 0 0 0 0 0 0 0 4 1 2 2 0 0 0 0 0 0 0 0 0 0 0
0 0 0 0 0 0 0 0 0 0 0 0 0 0 0 0 0 0 0 0 0 0 0 0 0 0 0 6 1 0 0 0 0 0 0 0 0 0 0 0 0 0 0
0 0 0 0 0 0 0 0 0 0 0 0 0 0 0 0 0 0 0 0 0 0 0 0 0 0 0 3 6 0 0 0 0 0 0 0 0 0 0 0 0 0 0
0 0 0 0 0 0 0 0 0 0 0 0 0 0 0 0 0 0 0 0 0 0 0 0 0 0 0 0 9 0 0 0 0 0 0 0 0 0 0 0 0 0 0
CIN
-78 -34 -4 0 0 0 0 0 -6 -29 -12 -7 -3 -7 -49 -121 0 0 0 0 0 0 0 0 0 -1 0 -2 -1 0 0 0 0 0 0 0 0 -1 0 0 -1 -1 -1
-137 -27 -9 -10 0 0 0 -12 -31 -49 -22 -10 -6 -1 -25 -76 -4 0 0 0 0 0 0 0 -1 0 0 0 0 -1 0 0 0 0 -3 -1 0 -1 0 0 0 0 0
-60 -47 -99 -64 0 0 -5 -40 -38 -30 -31 -5 -27 -68 -74 -165 -11 -4 0 0 0 0 0 -1 0 0 0 0 0 0 0 0 0 0 0 -1 -2 0 0 0 0 0 0
-82 -112 -172 -104 -23 -22 -35 -70 -104 -180 -51 -12 -14 -100 -169 -219 -1 -2 -1 0 -1 0 -1 0 0 0 0 0 0 0 0 0 0 0 0 0 -2 -2 0 0 0 0 0
-135 -174 -238 -142 -68 -65 -100 -129 -197 -211 -82 -48 -67 -159 -194 -3 -2 0 0 -1 0 0 0 0 0 0 0 0 0 0 0 0 0 0 0 -4 -3 -1 0 0 0 0 -1
-170 -255 -225 -149 -121 -172 -250 -245 -255 -7 -87 -67 -73 -153 -241 -4 0 0 0 0 0 0 0 0 0 0 0 0 0 0 0 0 0 0 0 -19 -4 0 0 0 0 0 -1
-104 -42 -197 -162 -174 -254 0 0 -234 -159 -124 -112 -188 -8 -4 -4 0 0 0 0 0 0 0 0 0 0 0 0 0 0 0 0 0 0 0 0 -7 0 0 0 0 0 0
0 -161 -129 -161 -187 0 0 0 0 0 0 -6 -8 -9 -8 -6 0 0 0 0 0 0 0 0 0 0 0 0 0 0 0 0 0 0 0 0 -5 0 0 0 0 -1 -2
0 0 -136 -126 -88 0 0 0 0 0 0 -2 -2 -2 -2 0 0 0 0 0 0 0 0 0 0 0 0 0 0 0 0 0 0 0 0 0 -3 -1 0 0 -1 0 0
0 0 0 -128 0 0 0 0 0 0 0 0 0 0 0 0 0 0 0 0 0 0 0 0 0 0 0 0 0 0 0 0 0 0 0 0 0 -1 -1 -1 0 -1 -1
0 0 0 0 0 0 0 0 0 0 0 0 0 0 0 0 0 0 0 0 0 0 0 0 0 0 0 0 0 0 0 0 0 0 0 -2 -8 -5 0 0 0 0 -1
-31 0 0 0 0 0 0 0 0 0 0 0 0 0 0 0 0 0 0 0 0 0 0 0 0 0 0 0 0 0 0 0 0 0 0 0 -4 0 0 0 0 0 -1
-46 0 0 0 0 0 0 0 0 0 0 0 0 0 0 0 0 0 0 0 0 0 0 0 0 0 0 0 0 0 0 0 0 0 0 0 0 0 0 -1 -1 0 0
-39 -45 0 0 0 0 0 0 0 0 0 0 0 0 0 0 0 0 0 0 0 0 0 0 0 0 0 0 0 0 0 0 0 0 0 0 0 0 -1 -1 0 0 0
-18 -33 -40 0 0 0 0 0 0 0 0 0 0 0 0 0 0 0 0 0 0 0 0 0 0 0 0 0 0 -1 0 0 0 0 0 0 0 0 0 -1 0 0 0
-17 -22 -29 -17 0 0 0 0 0 0 0 0 0 0 0 0 0 0 0 0 0 0 0 0 0 0 0 0 -11 -20 -42 0 0 0 0 0 0 -1 0 0 0 -1 0
-12 -24 -24 -20 0 0 0 0 0 0 0 0 0 0 0 0 0 0 0 0 0 0 0 0 0 0 0 -16 -9 -14 -38 0 0 0 0 0 0 0 0 0 0 0 0
-18 0 -26 -29 -19 0 0 0 0 0 0 0 0 0 0 0 0 0 0 0 0 0 0 0 0 0 0 0 -11 -17 0 0 0 0 0 0 0 0 0 0 0 0 0
0 0 0 -4 -25 0 0 0 0 0 0 0 0 0 0 0 0 0 0 0 0 0 0 0 0 0 0 0 0 0 0 0 0 0 0 0 0 0 0 0 0 0 0
0 0 0 0 0 0 0 0 0 0 0 0 0 0 0 0 0 0 0 0 0 0 0 0 0 0 0 0 -8 -18 0 0 0 0 0 0 0 0 0 0 0 0 0
0 0 0 0 0 0 0 0 0 0 0 0 0 0 0 0 0 0 0 0 0 0 0 0 0 0 0 0 -24 0 0 0 0 0 0 0 0 0 0 0 0 0 0
0 0 0 0 0 0 0 0 0 0 0 0 0 0 0 0 0 0 0 0 0 0 0 0 0 0 0 0 -12 -22 -5 0 0 0 0 0 0 0 0 0 0 0 0
0 0 0 0 0 0 0 0 0 0 0 0 0 0 0 0 0 0 0 0 0 0 0 0 0 0 0 0 -24 -6 -13 -6 0 0 0 0 0 0 0 0 0 0 0
0 0 0 0 0 0 0 0 0 0 0 0 0 0 0 0 0 0 0 0 0 0 0 0 0 0 -11 -23 -65 0 0 0 0 0 0 0 0 0 0 0 0 0 0
0 0 0 0 0 0 0 0 0 0 0 0 0 0 0 0 0 0 0 0 0 0 0 0 0 0 0 -41 -54 0 0 0 0 0 0 0 0 0 0 0 0 0 0
0 0 0 0 0 0 0 0 0 0 0 0 0 0 0 0 0 0 0 0 0 0 0 0 0 0 0 -12 -56 -20 0 0 0 0 0 0 0 0 0 0 0 0 0
Wind_Speed
18 11 14 13 6 17 15 8 14 17 15 13 13 18 18 18 18 18 18 19 19 17 14 14 15 20 23 22 18 20 22 26 28 30 31 31 32 32 32 32 32 32 32
17 14 10 7 11 14 12 7 15 18 14 12 13 17 18 19 19 19 19 19 17 15 14 15 18 22 21 17 15 25 27 28 30 29 31 31 31 32 32 32 31 31 31
20 14 11 9 9 10 9 6 9 15 14 14 19 18 16 17 19 20 18 16 14 14 15 16 18 19 17 15 18 26 29 29 29 29 30 30 31 31 31 30 30 30 30
23 19 13 11 10 11 8 7 10 10 9 8 17 17 18 17 18 18 16 12 13 14 15 15 17 18 13 14 20 26 27 27 27 29 30 29 28 30 29 28 28 28 28
23 21 17 15 13 11 10 11 11 14 3 5 17 19 19 17 17 14 11 11 14 15 15 15 16 13 12 15 21 26 27 27 27 28 28 24 26 26 26 25 25 25 25
22 21 19 17 15 10 10 15 15 16 11 18 17 17 19 18 16 12 11 14 14 14 14 13 13 12 13 15 20 24 24 26 26 26 26 13 17 23 24 24 22 23 24
21 21 19 18 15 13 6 18 18 12 6 12 15 15 16 17 15 12 13 14 13 12 13 12 12 13 14 15 19 23 24 25 25 26 26 21 8 27 27 28 29 29 30
21 21 17 19 20 4 3 3 13 4 8 10 13 14 14 14 12 13 14 12 11 11 11 12 12 13 16 18 19 21 22 23 24 25 25 25 12 27 26 28 28 29 29
20 21 21 21 19 22 7 3 8 8 8 10 12 13 13 12 10 11 11 10 10 11 12 12 13 15 16 17 18 20 21 22 23 24 25 25 26 26 27 27 28 28 29
19 21 24 29 13 12 16 11 3 3 6 8 10 11 11 9 9 10 9 10 10 11 12 13 14 14 15 15 17 20 20 21 23 24 24 24 25 25 26 26 27 28 28
13 17 21 12 27 20 20 17 4 4 5 6 7 9 9 8 9 10 10 11 12 12 13 14 14 14 15 16 18 20 19 20 22 23 23 23 24 25 25 26 26 27 28
14 14 19 20 30 23 20 17 13 5 3 4 5 7 6 7 9 9 9 10 11 12 13 13 14 15 16 17 18 20 19 20 22 22 22 22 23 24 24 25 26 27 28
16 14 18 18 17 11 12 2 1 3 5 4 4 4 4 6 7 7 8 9 10 11 12 13 14 15 16 16 18 19 18 19 20 21 21 22 22 23 23 24 26 27 27
10 14 19 20 14 13 8 12 12 11 8 7 4 7 4 5 7 7 8 9 9 9 11 12 13 14 15 16 17 18 17 18 18 19 20 21 21 22 22 24 25 26 27
5 11 14 15 17 13 12 11 11 11 10 9 3 4 3 4 5 6 7 7 8 9 10 10 11 12 13 14 15 17 16 16 17 17 18 19 20 20 21 23 24 25 27
8 8 7 7 11 11 8 8 8 10 11 10 6 2 3 3 3 4 5 6 7 7 8 9 10 11 12 14 14 14 14 14 15 16 17 18 19 19 20 22 24 25 26
7 8 9 8 8 10 9 10 7 8 6 10 8 4 2 2 2 3 4 5 6 7 7 9 10 11 12 12 16 14 14 12 13 14 15 17 18 19 20 22 23 25 26
7 9 9 9 9 10 8 7 7 6 6 9 8 4 2 1 0 2 3 4 5 5 6 7 9 11 12 12 15 14 13 11 12 12 13 15 16 17 19 21 22 24 25
9 8 10 12 11 10 9 7 7 7 7 6 5 5 5 4 3 4 6 6 6 5 7 7 9 11 11 12 14 14 11 10 10 10 11 12 14 15 17 19 21 23 24
9 9 9 11 11 11 10 8 7 8 8 7 7 7 6 6 6 9 10 8 6 5 7 8 9 10 12 12 15 13 11 10 10 10 10 11 12 14 15 17 19 21 22
10 11 11 13 12 12 11 11 12 11 9 9 9 9 8 9 8 10 11 9 8 8 10 10 11 11 11 12 15 16 14 13 12 10 9 10 11 12 14 16 17 19 20
13 13 14 15 15 15 12 13 14 13 13 11 10 11 10 10 10 10 12 12 11 11 12 11 11 13 13 9 16 14 16 16 14 12 11 10 10 11 13 14 16 18 19
16 15 15 16 15 15 14 13 16 14 19 15 17 15 13 11 11 10 11 12 12 12 13 12 11 11 14 12 13 16 20 21 17 16 13 12 11 11 13 13 15 17 18
19 17 16 15 16 16 15 15 15 14 14 14 14 14 13 13 12 12 12 12 14 16 16 14 13 12 15 15 16 14 17 18 20 22 17 15 13 13 13 13 13 14 16
21 20 19 18 17 17 17 18 17 18 15 17 16 15 15 15 15 14 14 15 15 16 16 15 15 14 14 17 18 18 18 19 20 22 24 19 17 15 14 13 13 14 16
21 21 20 20 19 19 18 18 19 19 18 20 19 19 18 17 17 16 16 17 17 17 17 17 16 16 17 18 18 18 17 20 20 22 25 23 20 18 15 14 14 14 14
Wind_Direction
102 69 75 207 359 61 54 24 47 55 46 38 37 51 48 46 45 40 38 37 39 34 27 27 31 42 48 41 31 35 34 42 47 49 50 48 51 51 50 51 59 58 53
103 89 54 3 39 60 47 23 55 60 48 39 41 52 51 50 47 45 42 42 38 33 30 31 38 50 45 29 20 61 59 51 54 49 53 53 50 49 52 56 59 60 58
102 86 61 41 38 47 41 26 35 53 48 53 68 59 47 45 50 51 44 38 34 33 31 34 42 45 37 25 29 54 68 58 54 49 54 66 60 54 57 62 62 60 56
111 98 74 65 54 56 42 24 38 36 36 212 66 58 55 50 51 45 44 31 31 32 31 32 42 44 24 21 36 57 56 53 48 52 58 69 70 56 63 66 63 60 57
111 105 89 79 74 65 55 53 52 61 314 166 68 64 62 52 50 40 30 28 33 34 33 33 40 33 21 25 39 56 54 51 49 51 63 80 70 67 67 67 65 62 58
112 109 98 90 83 62 58 74 73 76 218 79 67 60 62 59 52 37 29 36 35 32 32 30 31 26 20 21 37 56 48 47 47 46 59 111 96 68 65 62 64 59 59
114 113 102 94 83 77 39 89 88 66 36 64 63 62 58 58 50 41 39 39 30 27 29 28 27 24 20 20 27 48 51 44 39 34 26 350 119 32 33 36 34 36 32
117 116 102 107 107 287 8 68 80 32 52 54 62 57 55 50 48 47 47 34 23 19 21 25 23 21 26 27 25 35 51 35 25 24 23 18 311 27 28 28 28 27 30
118 122 120 121 117 201 255 10 66 65 62 61 62 62 58 52 44 41 34 21 19 22 26 26 24 25 24 14 11 17 46 35 25 19 20 26 19 28 24 26 27 30 30
122 127 138 178 108 240 230 246 23 21 45 52 64 58 54 43 37 33 20 18 23 29 31 30 23 15 1 349 355 12 39 25 17 12 15 12 23 24 24 28 28 28 29
118 125 132 114 195 223 223 232 289 304 62 56 56 62 56 46 45 38 31 35 37 37 38 35 19 356 347 344 353 8 31 22 16 14 13 18 21 23 28 29 29 28 26
134 132 136 135 185 222 230 243 252 296 351 30 41 59 35 34 47 45 37 36 36 40 39 23 7 2 7 11 10 11 26 23 16 17 17 19 21 26 28 29 29 26 23
142 140 144 142 139 128 253 301 10 29 65 41 59 43 21 15 28 20 20 29 36 33 17 9 19 17 20 20 13 15 25 23 21 19 19 20 23 26 29 31 27 24 24
146 149 152 152 143 139 125 131 130 123 107 104 78 304 66 52 48 30 43 54 51 36 28 29 26 26 28 25 22 20 25 25 24 24 24 24 24 26 29 27 24 24 23
193 158 157 156 154 149 143 142 139 138 131 127 82 332 58 61 52 38 55 53 42 43 40 37 33 32 31 28 27 22 29 30 29 29 28 27 27 30 31 26 24 23 22
247 182 187 187 164 159 155 150 151 148 146 142 135 109 106 68 13 34 48 50 45 45 40 38 35 33 30 23 20 22 29 31 30 30 28 25 25 28 29 25 23 20 20
234 230 208 207 197 178 170 163 164 166 160 157 154 152 142 98 72 52 54 17 24 24 32 30 19 15 15 19 11 19 23 31 31 30 27 25 25 26 26 23 22 20 19
235 210 223 230 214 194 195 190 188 190 185 172 171 180 213 170 111 340 350 347 2 21 22 18 13 7 10 9 6 11 14 26 29 30 29 28 26 25 23 21 20 18 18
196 219 208 208 219 213 213 206 211 204 206 199 205 215 223 258 252 287 304 315 331 343 351 359 356 356 359 3 2 6 14 23 28 27 26 27 25 23 20 19 18 16 17
195 202 212 214 213 217 223 228 234 234 227 231 227 227 231 242 271 286 296 305 315 324 331 334 337 344 350 355 357 360 6 14 16 18 23 21 20 19 18 17 16 15 16
215 204 206 200 211 205 232 235 251 233 231 237 238 232 243 263 265 279 285 292 298 302 314 320 326 331 336 347 350 353 355 357 358 2 7 10 10 11 12 13 13 13 14
216 209 203 204 202 203 219 250 261 257 259 248 250 256 252 252 263 267 279 286 291 298 306 310 314 320 324 329 333 340 335 338 340 345 346 350 355 1 2 5 8 9 11
218 215 215 215 215 210 218 248 267 265 273 266 270 267 259 250 252 256 266 278 283 288 296 301 301 305 313 316 320 327 328 323 331 332 329 331 337 343 350 356 0 4 7
226 238 237 236 228 223 220 226 222 231 230 247 256 260 257 250 252 254 260 268 277 287 292 293 294 296 309 310 316 313 322 330 326 325 327 323 323 326 334 343 349 356 1
237 237 243 245 237 232 226 218 228 219 243 268 269 264 258 263 255 260 263 271 274 281 283 286 288 286 291 300 306 311 314 318 322 322 319 318 317 316 321 329 338 346 353
247 240 241 243 241 242 238 233 229 230 246 266 268 267 269 268 268 261 263 266 272 278 279 279 280 281 285 293 298 301 303 310 309 313 316 315 306 310 311 318 325 332 342